[[{"header":{"parameterUnit":"m.s-1","parameterCategory":1,"la1":30.2991,"la2":30.254,"lo1":-89.0895,"lo2":-89.0444,"dy":0.0017,"dx":0.0017,"nx":28,"ny":28,"refTime":"2025-08-24T09:00:00:Z","depth":0,"parameterNumber":2,"parameterNumberName":"U-component_of_WINDS"},"data":[0,0,0,0,0,0,0,0,0,0,0,0,0,0,0,0,0,0,0,0,0,0,0,0,0,0,0,0,0,0,0,0,0,0,0,0,0,0,0,0,0,0,0,0,0,0,0,0,0,0,0,0,0,0,0,0,0,0,0.309,0.3089,0,0.2949,0.2947,0.2946,0.2813,0.2811,0.2809,0.2808,0.2663,0.2661,0.2659,0,0,0,0,0,0,0,0,0,0,0,0,0,0.3246,0.3244,0.3091,0.3089,0.3087,0.2949,0.2947,0.2945,0.2813,0.2811,0.2809,0.2807,0.2664,0.2661,0.2659,0,0,0,0,0,0,0,0,0,0,0,0,0,0.3149,0.3243,0.3091,0.3004,0.2995,0.295,0.2947,0.2945,0.2813,0.2811,0.2808,0.2806,0.2665,0.2662,0.2658,0.2687,0,0,0.2648,0.2646,0,0,0,0,0,0,0,0,0.3155,0.3144,0.3019,0.301,0.3,0.2896,0.2949,0.2859,0.2814,0.2882,0.2808,0.2805,0.2743,0.2733,0.2712,0.2681,0.2674,0.2648,0.2646,0.2644,0.2643,0,0,0,0,0,0,0,0.3162,0.3149,0.3035,0.3017,0.3006,0.2972,0.2956,0.2931,0.2828,0.2876,0.2866,0.2851,0.2737,0.2715,0.2707,0.2672,0.2648,0.2645,0.2643,0.2641,0.2658,0.266,0,0,0,0,0,0,0.3182,0.3155,0.3039,0.303,0.3073,0.2972,0.2953,0.2932,0.2828,0.281,0.2853,0.2846,0.2723,0.2712,0.2702,0.2729,0.2644,0.2641,0.2639,0.2655,0.2658,0.2661,0,0,0,0,0,0,0.3185,0.3172,0.3045,0.309,0.3071,0.2972,0.2949,0.293,0.2908,0.2811,0.2792,0.285,0.272,0.2707,0.2692,0.2722,0.2639,0.2636,0.2652,0.2656,0.266,0.2784,0,0,0,0,0,0,0.319,0.3175,0.3185,0.3091,0.3069,0.3038,0.2951,0.2929,0.2903,0.2891,0.2803,0.2786,0.2717,0.2698,0.2689,0.2716,0.2634,0.2649,0.2654,0.2658,0.2777,0.2792,0.2804,0,0,0,0,0,0.3196,0.3226,0.3186,0.3173,0.308,0.304,0.3027,0.2947,0.2906,0.2915,0.2852,0.2789,0.272,0.2697,0.2686,0.2713,0.2647,0.2653,0.2658,0.2771,0.2789,0.2804,0,0,0,0,0,0,0.3325,0.3212,0.3166,0.3166,0.3114,0.3017,0.3026,0.2969,0.2927,0.2917,0.282,0.2801,0.2798,0.2753,0.273,0.2735,0.2675,0.2679,0.2765,0.2781,0.2794,0.2805,0.2631,0,0,0,0,0,0.3354,0.333,0.3232,0.3242,0.3217,0.3127,0.3106,0.3049,0.2991,0.2968,0.2904,0.285,0.2816,0.2796,0.2759,0.277,0.2749,0.2783,0.2796,0.2808,0.2813,0.2815,0.2829,0.2679,0.2679,0.2679,0,0,0.3412,0.3347,0.3338,0.3266,0.3218,0.3196,0.3109,0.309,0.3072,0.2965,0.2947,0.2899,0.2832,0.283,0.2826,0.2793,0.2849,0.2815,0.2825,0.2823,0.2822,0.2836,0.2849,0.2683,0.2682,0.2682,0,0,0.3507,0.3456,0.3458,0.3412,0.3341,0.3281,0.3281,0.3193,0.3157,0.3138,0.3056,0.3035,0.2978,0.2934,0.2904,0.2983,0.2923,0.2974,0.3046,0.3049,0.3061,0.3071,0.31,0.3111,0.2978,0.2979,0.2979,0,0.3589,0.3553,0.3466,0.3452,0.3422,0.3324,0.3325,0.3285,0.3206,0.3188,0.3152,0.3079,0.3027,0.3014,0.3033,0.3012,0.301,0.2984,0.3066,0.3075,0.3084,0.311,0.3121,0.2985,0.2985,0.2984,0.2983,0,0.3657,0.3633,0.3643,0.3569,0.3541,0.3535,0.3447,0.3429,0.3374,0.3318,0.3299,0.3233,0.3182,0.3174,0.3121,0.3153,0.3135,0.3085,0.3022,0.3106,0.3129,0.3138,0.2995,0.2993,0.2991,0.2989,0,0,0.383,0.3708,0.3713,0.3679,0.3593,0.3573,0.3562,0.3512,0.3498,0.3447,0.3435,0.339,0.3342,0.3309,0.3249,0.3253,0.332,0.3201,0.3198,0.3226,0.3352,0.3391,0.3404,0.3279,0.3281,0.3282,0.3357,0,0.3911,0.3886,0.3808,0.3806,0.3783,0.3689,0.368,0.3626,0.3573,0.3546,0.3487,0.3457,0.3396,0.3375,0.3374,0.3312,0.3344,0.3305,0.3268,0.3268,0.3288,0.3416,0.3457,0.3532,0.3366,0.3367,0.3368,0,0.4003,0.3958,0.3955,0.387,0.3857,0.385,0.3797,0.3772,0.371,0.3671,0.3634,0.3568,0.3551,0.3493,0.3469,0.3445,0.3425,0.3392,0.3393,0.3387,0.3324,0.3414,0.3553,0.3565,0.3381,0.338,0.3379,0,0.413,0.4069,0.4058,0.4031,0.3932,0.393,0.3888,0.3823,0.3798,0.3752,0.3734,0.3687,0.3662,0.3627,0.355,0.3514,0.3535,0.347,0.3503,0.3505,0.3512,0.3512,0.3651,0.3499,0.3498,0.3498,0.3498,0,0.423,0.4231,0.4114,0.4108,0.4107,0.4017,0.4019,0.3968,0.3911,0.3894,0.3809,0.3795,0.3693,0.3667,0.3607,0.3597,0.3586,0.3554,0.3538,0.3562,0.3566,0.3548,0.3541,0.3501,0.35,0.35,0.3499,0,0.4372,0.4293,0.4276,0.4184,0.416,0.4164,0.4084,0.4075,0.4017,0.3996,0.3985,0.3894,0.3859,0.3779,0.3722,0.3681,0.3687,0.3657,0.3708,0.3698,0.3735,0.3733,0.3867,0.388,0.372,0.3722,0.3723,0,0.4441,0.444,0.4347,0.4329,0.4291,0.4263,0.4237,0.4148,0.4124,0.4053,0.4053,0.4011,0.3972,0.3921,0.385,0.3806,0.3775,0.3825,0.3768,0.3792,0.3776,0.3778,0.3777,0.3838,0.384,0.3842,0.3844,0,0.4571,0.4532,0.4497,0.4449,0.442,0.4378,0.4331,0.4321,0.4221,0.4199,0.4161,0.4132,0.4074,0.4034,0.3979,0.3936,0.3874,0.3862,0.3867,0.3892,0.3921,0.3906,0.3743,0.386,0.3858,0.3857,0.3856,0.3855,0.4679,0.4674,0.4608,0.4572,0.4527,0.4485,0.4472,0.4412,0.4379,0.4325,0.4274,0.4243,0.418,0.41,0.4062,0.4035,0.4004,0.4011,0.4013,0.4017,0.4027,0.3926,0.4025,0.4025,0.4024,0.4024,0.4023,0,0.4805,0.4758,0.4726,0.4663,0.4635,0.4578,0.4523,0.4503,0.4476,0.4423,0.4387,0.4344,0.4305,0.4231,0.4185,0.4178,0.4148,0.4169,0.4169,0.416,0.4058,0.4058,0.4194,0.4194,0.4194,0.4194,0.4194,0.4194,0.4868,0.4856,0.481,0.4775,0.4727,0.4695,0.4669,0.463,0.4587,0.4543,0.451,0.4462,0.44,0.4349,0.431,0.4289,0.4276,0.4307,0.4277,0.4183,0.4167,0.4152,0.4152,0.4305,0.4305,0.4381,0.4381,0.4382]},{"header":{"parameterUnit":"m.s-1","parameterCategory":1,"la1":30.2991,"la2":30.254,"lo1":-89.0895,"lo2":-89.0444,"dy":0.0017,"dx":0.0017,"nx":28,"ny":28,"refTime":"2025-08-24T09:00:00:Z","depth":0,"parameterNumber":3,"parameterNumberName":"V-component_of_WINDS"},"data":[0,0,0,0,0,0,0,0,0,0,0,0,0,0,0,0,0,0,0,0,0,0,0,0,0,0,0,0,0,0,0,0,0,0,0,0,0,0,0,0,0,0,0,0,0,0,0,0,0,0,0,0,0,0,0,0,0,0,0.0674,0.0675,0,0.0771,0.0772,0.0774,0.0807,0.0806,0.0806,0.0805,0.0912,0.0915,0.0918,0,0,0,0,0,0,0,0,0,0,0,0,0,0.052,0.0523,0.0673,0.0675,0.0676,0.0771,0.0772,0.0774,0.0807,0.0806,0.0806,0.0805,0.0911,0.0915,0.0919,0,0,0,0,0,0,0,0,0,0,0,0,0,0.0599,0.0524,0.0673,0.0704,0.0707,0.0771,0.0773,0.0774,0.0807,0.0806,0.0806,0.0805,0.091,0.0914,0.0919,0.0961,0,0,0.0934,0.0936,0,0,0,0,0,0,0,0,0.0595,0.0605,0.0698,0.0702,0.0706,0.0776,0.0758,0.0837,0.0807,0.0769,0.0805,0.0805,0.0868,0.0876,0.0896,0.0966,0.0971,0.0934,0.0937,0.0939,0.0941,0,0,0,0,0,0,0,0.0589,0.0601,0.0712,0.0699,0.0704,0.0714,0.0725,0.0773,0.0821,0.0773,0.0775,0.0786,0.087,0.0891,0.0899,0.0973,0.0934,0.0938,0.0941,0.0943,0.1082,0.1083,0,0,0,0,0,0,0.0578,0.0596,0.0709,0.0715,0.0648,0.0717,0.0729,0.0754,0.0821,0.083,0.0786,0.0787,0.0883,0.0893,0.0902,0.0956,0.0939,0.0944,0.0947,0.1081,0.1082,0.1083,0,0,0,0,0,0,0.0575,0.0588,0.0705,0.0656,0.0672,0.0721,0.0749,0.0757,0.0778,0.0831,0.084,0.0799,0.0883,0.0896,0.0946,0.096,0.0946,0.095,0.1081,0.1082,0.1083,0.1064,0,0,0,0,0,0,0.057,0.0586,0.0602,0.0656,0.0675,0.0746,0.0749,0.0759,0.0785,0.0787,0.0845,0.0854,0.0883,0.0938,0.0951,0.0967,0.0954,0.108,0.1081,0.1082,0.1064,0.1064,0.1065,0,0,0,0,0,0.0564,0.0594,0.0602,0.0616,0.0695,0.0746,0.0757,0.0788,0.0786,0.0803,0.0837,0.0852,0.0956,0.0943,0.0957,0.0975,0.1079,0.1081,0.1082,0.1063,0.1064,0.1065,0,0,0,0,0,0,0.0543,0.0602,0.0612,0.066,0.0697,0.0752,0.0774,0.0788,0.0829,0.083,0.0868,0.0881,0.0929,0.0957,0.0941,0.1019,0.1019,0.1023,0.0999,0.1001,0.1001,0.0994,0.0958,0,0,0,0,0,0.0543,0.0578,0.0629,0.0666,0.0684,0.0726,0.0749,0.077,0.0811,0.0828,0.0866,0.0907,0.0949,0.0976,0.1018,0.1067,0.1081,0.1086,0.1087,0.1087,0.1091,0.1119,0.1123,0.1089,0.1089,0.1089,0,0,0.0545,0.0582,0.0602,0.0663,0.0695,0.0731,0.0739,0.0778,0.0807,0.0835,0.0884,0.0913,0.0962,0.1011,0.1035,0.1037,0.1103,0.109,0.1089,0.1094,0.1122,0.1125,0.1128,0.109,0.109,0.109,0,0,0.0568,0.0599,0.0633,0.0664,0.071,0.0737,0.0745,0.0797,0.0817,0.0866,0.0887,0.0922,0.0994,0.1028,0.1054,0.1087,0.1103,0.1099,0.1104,0.1131,0.1134,0.1136,0.1148,0.1152,0.1103,0.1103,0.1103,0,0.0566,0.062,0.065,0.0687,0.0713,0.0737,0.0773,0.0802,0.0861,0.0879,0.0879,0.0968,0.1003,0.106,0.1068,0.1088,0.11,0.1094,0.113,0.1133,0.1136,0.1148,0.1153,0.1102,0.1102,0.1102,0.1102,0,0.0615,0.0652,0.0675,0.0728,0.0757,0.0793,0.0829,0.0855,0.0872,0.0899,0.0949,0.0991,0.1041,0.1056,0.1075,0.1117,0.1116,0.1122,0.1123,0.1138,0.115,0.1155,0.1101,0.1101,0.1102,0.1102,0,0,0.0629,0.0696,0.0704,0.0728,0.078,0.081,0.0848,0.0894,0.0916,0.0955,0.0988,0.1047,0.1053,0.1083,0.1105,0.1128,0.1152,0.1132,0.1134,0.1135,0.1201,0.1196,0.1201,0.1162,0.1163,0.1164,0.1197,0,0.0659,0.0725,0.0752,0.0806,0.0841,0.0863,0.0896,0.0933,0.0958,0.0994,0.1023,0.1064,0.1068,0.1086,0.111,0.1144,0.1166,0.1142,0.1195,0.1197,0.1183,0.1207,0.1203,0.1233,0.1202,0.1203,0.1203,0,0.0704,0.074,0.0797,0.0843,0.0859,0.0888,0.0932,0.0965,0.1007,0.1024,0.1056,0.1076,0.1118,0.1114,0.1172,0.1155,0.1178,0.1197,0.1199,0.1207,0.1202,0.1216,0.1243,0.1247,0.1211,0.121,0.121,0,0.0709,0.0773,0.0814,0.0834,0.0889,0.0909,0.0933,0.0974,0.1,0.1039,0.1056,0.1101,0.1125,0.116,0.1192,0.1186,0.1247,0.1246,0.1264,0.1263,0.1277,0.1276,0.1309,0.129,0.129,0.129,0.129,0,0.074,0.0775,0.0817,0.0843,0.0882,0.0912,0.0951,0.0977,0.1012,0.1045,0.1068,0.1098,0.1138,0.1174,0.12,0.1244,0.1255,0.1271,0.1278,0.127,0.1268,0.1287,0.1286,0.1291,0.1291,0.1291,0.1291,0,0.0754,0.0783,0.0831,0.0878,0.089,0.0917,0.0958,0.0985,0.1011,0.1052,0.1063,0.1105,0.1148,0.1183,0.124,0.1257,0.1304,0.1311,0.1289,0.1293,0.1309,0.1308,0.1356,0.1364,0.1339,0.1339,0.1339,0,0.0773,0.0799,0.0848,0.0869,0.0893,0.0928,0.0954,0.0985,0.1011,0.1059,0.108,0.1124,0.1161,0.1229,0.1266,0.131,0.1319,0.1333,0.1326,0.1317,0.132,0.1318,0.1321,0.1334,0.1334,0.1334,0.1334,0,0.0803,0.0815,0.085,0.089,0.0919,0.0952,0.0986,0.1003,0.104,0.1069,0.1112,0.114,0.1197,0.1241,0.1288,0.1315,0.1332,0.1336,0.1342,0.1335,0.1321,0.133,0.1292,0.1335,0.1335,0.1335,0.1335,0.1335,0.082,0.0844,0.0881,0.0919,0.0947,0.0978,0.1005,0.1033,0.1068,0.1115,0.1131,0.1176,0.1216,0.1281,0.1308,0.1344,0.1346,0.1355,0.1358,0.136,0.1359,0.1314,0.1353,0.1353,0.1353,0.1353,0.1353,0,0.0852,0.0876,0.091,0.0956,0.0985,0.0994,0.1032,0.1057,0.1095,0.113,0.1165,0.1214,0.1257,0.1295,0.134,0.1361,0.137,0.1372,0.1372,0.1378,0.1355,0.1345,0.1364,0.1364,0.1364,0.1364,0.1364,0.1364,0.0872,0.0913,0.093,0.0985,0.101,0.1051,0.1072,0.1101,0.1129,0.1182,0.1216,0.1239,0.1277,0.1323,0.1363,0.1373,0.1389,0.1389,0.1402,0.1381,0.1379,0.1378,0.1369,0.1392,0.1392,0.1422,0.1422,0.1422]}]]